DW8176 Weather Reports


time (UTC)temp
F
wind
direction
speed
knots
gust
knots
rain 1hr
in
rain 24hr
in
rain mn
in
humidity
%
barometer
mb
20211025030151 67 212 1.7 7.8 0.00 0.00 0.00 77 1019.9
20211025020151 67 153 3.5 9.6 0.00 0.00 0.00 76 1020.0
20211025010151 67 153 1.7 9.6 0.00 0.00 0.00 76 1020.2
20211025000150 68 118 0.0 8.7 0.00 0.00 0.00 73 1020.4
20211024230150 70 359 0.0 6.1 0.00 0.00 0.00 67 1020.6
20211024220151 73 97 0.0 6.1 0.00 0.00 0.00 56 1020.3
20211024210150 75 144 3.5 10.4 0.00 0.00 0.00 48 1020.2
20211024200150 77 196 1.7 7.0 0.00 0.00 0.00 42 1020.1
20211024190150 78 195 0.0 8.7 0.00 0.00 0.00 42 1020.6
20211024180150 77 237 0.9 5.2 0.00 0.00 0.00 46 1021.2
20211024170151 76 208 1.7 5.2 0.00 0.00 0.00 50 1021.7
20211024160151 74 132 0.9 5.2 0.00 0.00 0.00 55 1022.5
20211024150150 70 179 3.5 4.3 0.00 0.00 0.00 67 1023.0
20211024140150 67 131 0.0 1.7 0.00 0.00 0.00 80 1023.1
20211024130150 62 354 0.0 0.0 0.00 0.00 0.00 87 1023.0
20211024120150 59 318 0.0 0.0 0.00 0.00 0.00 90 1022.4
20211024110150 59 317 0.0 0.0 0.00 0.00 0.00 90 1021.8
20211024100150 58 316 0.0 0.0 0.00 0.00 0.00 89 1021.1
20211024090150 58 316 0.0 0.0 0.00 0.00 0.00 88 1020.5
20211024080150 59 316 0.0 0.0 0.00 0.00 0.00 87 1019.8
20211024070150 59 317 0.0 0.0 0.00 0.00 0.00 86 1019.7
20211024060150 57 317 0.0 0.0 0.00 0.00 0.00 88 1019.3
20211024050150 57 317 0.0 0.0 0.00 0.00 0.00 85 1019.3
20211024040151 58 322 0.0 0.0 0.00 0.00 0.00 85 1018.8